EW6143 Weather Reports


time (UTC)temp
F
wind
direction
speed
knots
gust
knots
rain 1hr
in
rain 24hr
in
rain mn
in
humidity
%
barometer
mb
20260906221537 99 267 5.2 11.3 0.00 0.00 0.00 41 1011.0
20260906220034 99 287 2.6 11.3 0.00 0.00 0.00 40 1010.9
20260906214534 99 279 5.2 10.4 0.00 0.00 0.00 40 1011.0
20260906213036 100 247 5.2 12.2 0.00 0.00 0.00 39 1011.2
20260906211540 99 327 6.1 10.4 0.00 0.00 0.00 40 1011.4
20260906203033 99 298 4.3 11.3 0.00 0.00 0.00 42 1012.2
20260906194535 99 277 5.2 13.9 0.00 0.00 0.00 43 1012.6
20260906184541 97 312 6.1 9.6 0.00 0.00 0.00 45 1013.3
20260906183037 97 342 5.2 11.3 0.00 0.00 0.00 46 1013.4
20260906181538 97 285 5.2 10.4 0.00 0.00 0.00 47 1013.7
20260906174538 95 273 3.5 10.4 0.00 0.00 0.00 49 1014.1
20260906173038 94 296 3.5 9.6 0.00 0.00 0.00 51 1014.4
20260906171534 93 263 2.6 7.8 0.00 0.00 0.00 54 1014.6
20260906170035 94 320 2.6 7.0 0.00 0.00 0.00 54 1014.7
20260906163043 94 219 2.6 11.3 0.00 0.00 0.00 54 1014.9
20260906161536 93 320 4.3 10.4 0.00 0.00 0.00 54 1014.9
20260906154534 92 286 1.7 6.1 0.00 0.00 0.00 61 1014.9
20260906153042 90 260 2.6 6.1 0.00 0.00 0.00 63 1014.9
20260906144538 86 250 1.7 6.1 0.00 0.00 0.00 71 1014.6
20260906143040 84 0 0.9 3.5 0.00 0.00 0.00 75 1014.6
20260906141535 83 320 1.7 3.5 0.00 0.00 0.00 77 1014.7
20260906134537 80 252 0.9 3.5 0.00 0.00 0.00 84 1014.4
20260906133035 79 239 0.9 2.6 0.00 0.00 0.00 85 1014.5
20260906131535 78 0 0.0 0.0 0.00 0.00 0.00 86 1014.5
20260906123037 77 0 0.0 0.0 0.00 0.00 0.00 84 1013.9
20260906121535 77 0 0.0 0.9 0.00 0.00 0.00 84 1014.0
20260906114534 77 294 0.0 1.7 0.00 0.00 0.00 83 1013.8
20260906113034 77 0 0.0 1.7 0.00 0.00 0.00 83 1013.7
20260906111534 78 0 0.0 0.0 0.00 0.00 0.00 83 1013.3
20260906103036 78 0 0.0 0.0 0.00 0.00 0.00 82 1013.4
20260906101535 78 0 0.0 0.0 0.00 0.00 0.00 81 1013.1
20260906090037 79 319 0.0 1.7 0.00 0.00 0.00 81 1012.5
20260906084538 79 319 0.9 2.6 0.00 0.00 0.00 81 1012.4
20260906080042 79 317 0.9 2.6 0.00 0.00 0.00 80 1012.9
20260906074539 80 306 0.9 2.6 0.00 0.00 0.00 79 1012.7
20260906063035 81 321 0.9 4.3 0.00 0.00 0.00 76 1013.0
20260906061538 81 275 2.6 5.2 0.00 0.00 0.00 75 1012.9
20260906053034 82 289 1.7 6.1 0.00 0.00 0.00 72 1013.1
20260906051534 82 327 1.7 6.1 0.00 0.00 0.00 71 1013.0
20260906033035 85 0 0.0 2.6 0.00 0.00 0.00 69 1012.9
20260906024535 86 302 1.7 7.0 0.00 0.00 0.00 65 1013.0
20260906003038 93 262 7.0 13.9 0.00 0.00 0.00 50 1011.2
20260905233047 98 263 0.9 5.2 0.00 0.00 0.00 41 1010.5
20260905230103 98 0 0.0 6.1 0.00 0.00 0.00 42 1010.6
20260905224539 98 333 0.9 8.7 0.00 0.00 0.00 41 1010.6